| time (UTC) | temp F | wind direction | speed MPH | gust MPH | rain 1hr in | rain 24hr in | rain mn in | humidity % | barometer mb |
| 20260906124511 | 65 | 98 | 1.0 | 6.0 | 0.00 | 0.00 | 0.00 | 94 | 1019.3 |
| 20260906124010 | 65 | 103 | 2.0 | 6.0 | 0.00 | 0.00 | 0.00 | 93 | 1019.3 |
| 20260906123507 | 65 | 84 | 3.0 | 6.0 | 0.00 | 0.00 | 0.00 | 94 | 1019.3 |
| 20260906123028 | 64 | 113 | 2.0 | 4.0 | 0.00 | 0.00 | 0.00 | 94 | 1019.2 |
| 20260906122507 | 64 | 100 | 2.0 | 4.0 | 0.00 | 0.00 | 0.00 | 94 | 1019.3 |
| 20260906122009 | 64 | 97 | 1.0 | 4.0 | 0.00 | 0.00 | 0.00 | 94 | 1019.3 |
| 20260906121530 | 64 | 69 | 1.0 | 4.0 | 0.00 | 0.00 | 0.00 | 94 | 1019.3 |
| 20260906121014 | 64 | 91 | 1.0 | 4.0 | 0.00 | 0.00 | 0.00 | 94 | 1019.3 |
| 20260906120507 | 63 | 89 | 2.0 | 4.0 | 0.00 | 0.00 | 0.00 | 94 | 1019.2 |
| 20260906120014 | 63 | 88 | 1.0 | 4.0 | 0.00 | 0.00 | 0.00 | 94 | 1019.1 |
| 20260906115506 | 63 | 82 | 1.0 | 4.0 | 0.00 | 0.00 | 0.00 | 94 | 1019.0 |
| 20260906115007 | 63 | 84 | 2.0 | 4.0 | 0.00 | 0.00 | 0.00 | 94 | 1018.8 |
| 20260906114524 | 63 | 79 | 2.0 | 4.0 | 0.00 | 0.00 | 0.00 | 94 | 1018.7 |
| 20260906114010 | 63 | 78 | 1.0 | 4.0 | 0.00 | 0.00 | 0.00 | 94 | 1018.6 |
| 20260906113514 | 63 | 99 | 2.0 | 4.0 | 0.00 | 0.00 | 0.00 | 94 | 1018.7 |
| 20260906113019 | 63 | 103 | 2.0 | 4.0 | 0.00 | 0.00 | 0.00 | 93 | 1018.6 |
| 20260906112511 | 63 | 83 | 2.0 | 4.0 | 0.00 | 0.00 | 0.00 | 93 | 1018.5 |
| 20260906112015 | 63 | 86 | 2.0 | 6.0 | 0.00 | 0.00 | 0.00 | 93 | 1018.5 |
| 20260906111521 | 63 | 82 | 2.0 | 6.0 | 0.00 | 0.00 | 0.00 | 93 | 1018.4 |
| 20260906111008 | 63 | 93 | 2.0 | 6.0 | 0.00 | 0.00 | 0.00 | 93 | 1018.4 |
| 20260906110515 | 63 | 88 | 3.0 | 6.0 | 0.00 | 0.00 | 0.00 | 93 | 1018.3 |
| 20260906110031 | 63 | 100 | 3.0 | 6.0 | 0.00 | 0.00 | 0.00 | 93 | 1018.3 |
| 20260906105507 | 63 | 101 | 3.0 | 6.0 | 0.00 | 0.00 | 0.00 | 93 | 1018.3 |
| 20260906105010 | 63 | 102 | 3.0 | 7.0 | 0.00 | 0.00 | 0.00 | 93 | 1018.4 |
| 20260906104519 | 63 | 89 | 2.0 | 7.0 | 0.00 | 0.00 | 0.00 | 93 | 1018.3 |
| 20260906104009 | 63 | 98 | 3.0 | 7.0 | 0.00 | 0.00 | 0.00 | 93 | 1018.2 |
| 20260906103511 | 63 | 101 | 3.0 | 6.0 | 0.00 | 0.00 | 0.00 | 93 | 1018.2 |
| 20260906103024 | 63 | 97 | 3.0 | 6.0 | 0.00 | 0.00 | 0.00 | 93 | 1018.3 |
| 20260906102503 | 63 | 93 | 2.0 | 6.0 | 0.00 | 0.00 | 0.00 | 93 | 1018.4 |
| 20260906102001 | 63 | 86 | 2.0 | 4.0 | 0.00 | 0.00 | 0.00 | 92 | 1018.4 |
| 20260906101504 | 64 | 77 | 3.0 | 4.0 | 0.00 | 0.00 | 0.00 | 92 | 1018.4 |
| 20260906101004 | 64 | 86 | 2.0 | 4.0 | 0.00 | 0.00 | 0.00 | 92 | 1018.2 |
| 20260906100504 | 64 | 93 | 2.0 | 4.0 | 0.00 | 0.00 | 0.00 | 92 | 1018.2 |
| 20260906100004 | 64 | 77 | 2.0 | 4.0 | 0.00 | 0.00 | 0.00 | 92 | 1018.2 |
| 20260906095502 | 64 | 96 | 2.0 | 4.0 | 0.00 | 0.00 | 0.00 | 92 | 1018.1 |
| 20260906095006 | 64 | 86 | 2.0 | 4.0 | 0.00 | 0.00 | 0.00 | 92 | 1018.2 |
| 20260906094504 | 64 | 62 | 1.0 | 4.0 | 0.00 | 0.00 | 0.00 | 92 | 1018.3 |
| 20260906094002 | 64 | 61 | 2.0 | 5.0 | 0.00 | 0.00 | 0.00 | 92 | 1018.3 |
| 20260906093501 | 64 | 72 | 2.0 | 5.0 | 0.00 | 0.00 | 0.00 | 92 | 1018.2 |
| 20260906093009 | 64 | 59 | 3.0 | 5.0 | 0.00 | 0.00 | 0.00 | 91 | 1018.1 |
| 20260906092505 | 64 | 76 | 2.0 | 4.0 | 0.00 | 0.00 | 0.00 | 91 | 1017.9 |
| 20260906092003 | 64 | 69 | 2.0 | 4.0 | 0.00 | 0.00 | 0.00 | 91 | 1017.9 |
| 20260906091504 | 65 | 89 | 2.0 | 3.0 | 0.00 | 0.00 | 0.00 | 91 | 1017.9 |
| 20260906091003 | 65 | 68 | 0.0 | 3.0 | 0.00 | 0.00 | 0.00 | 91 | 1017.9 |
| 20260906090505 | 65 | 68 | 2.0 | 3.0 | 0.00 | 0.00 | 0.00 | 91 | 1017.9 |
| 20260906090009 | 65 | 68 | 1.0 | 4.0 | 0.00 | 0.00 | 0.00 | 91 | 1018.0 |
| 20260906085504 | 65 | 68 | 1.0 | 4.0 | 0.00 | 0.00 | 0.00 | 91 | 1018.1 |
| 20260906085002 | 65 | 37 | 1.0 | 4.0 | 0.00 | 0.00 | 0.00 | 91 | 1018.1 |
| 20260906084509 | 65 | 10 | 1.0 | 4.0 | 0.00 | 0.00 | 0.00 | 91 | 1018.0 |
| 20260906084007 | 65 | 31 | 2.0 | 4.0 | 0.00 | 0.00 | 0.00 | 91 | 1018.0 |
| 20260906083502 | 65 | 5 | 2.0 | 4.0 | 0.00 | 0.00 | 0.00 | 91 | 1018.0 |
| 20260906083004 | 65 | 49 | 2.0 | 4.0 | 0.00 | 0.00 | 0.00 | 91 | 1018.0 |
| 20260906082505 | 65 | 70 | 1.0 | 3.0 | 0.00 | 0.00 | 0.00 | 91 | 1018.0 |
| 20260906082003 | 65 | 70 | 2.0 | 3.0 | 0.00 | 0.00 | 0.00 | 91 | 1017.9 |
| 20260906081503 | 65 | 76 | 1.0 | 3.0 | 0.00 | 0.00 | 0.00 | 91 | 1017.9 |
| 20260906081003 | 65 | 61 | 1.0 | 3.0 | 0.00 | 0.00 | 0.00 | 91 | 1017.9 |
| 20260906080504 | 65 | 352 | 1.0 | 3.0 | 0.00 | 0.00 | 0.00 | 91 | 1018.0 |
| 20260906080004 | 64 | 352 | 1.0 | 3.0 | 0.00 | 0.00 | 0.00 | 91 | 1018.0 |
| 20260906075502 | 64 | 352 | 1.0 | 3.0 | 0.00 | 0.00 | 0.00 | 91 | 1018.0 |
| 20260906075004 | 64 | 352 | 1.0 | 4.0 | 0.00 | 0.00 | 0.00 | 91 | 1018.0 |
| 20260906074506 | 64 | 352 | 1.0 | 4.0 | 0.00 | 0.00 | 0.00 | 92 | 1018.0 |
| 20260906074003 | 64 | 345 | 2.0 | 4.0 | 0.00 | 0.00 | 0.00 | 92 | 1018.0 |
| 20260906073504 | 64 | 329 | 2.0 | 4.0 | 0.00 | 0.00 | 0.00 | 91 | 1018.0 |
| 20260906073004 | 64 | 320 | 2.0 | 4.0 | 0.00 | 0.00 | 0.00 | 91 | 1018.0 |
| 20260906072507 | 64 | 333 | 2.0 | 4.0 | 0.00 | 0.00 | 0.00 | 91 | 1018.0 |
| 20260906072001 | 64 | 352 | 2.0 | 4.0 | 0.00 | 0.00 | 0.00 | 92 | 1017.9 |
| 20260906071503 | 64 | 5 | 2.0 | 4.0 | 0.00 | 0.00 | 0.00 | 92 | 1017.9 |
| 20260906071004 | 64 | 5 | 2.0 | 4.0 | 0.00 | 0.00 | 0.00 | 92 | 1017.9 |
| 20260906070506 | 64 | 5 | 2.0 | 4.0 | 0.00 | 0.00 | 0.00 | 92 | 1017.9 |
| 20260906070003 | 64 | 5 | 1.0 | 3.0 | 0.00 | 0.00 | 0.00 | 92 | 1017.9 |
| 20260906065503 | 64 | 5 | 2.0 | 3.0 | 0.00 | 0.00 | 0.00 | 91 | 1018.0 |
| 20260906065002 | 64 | 5 | 1.0 | 3.0 | 0.00 | 0.00 | 0.00 | 91 | 1017.9 |
| 20260906064503 | 64 | 5 | 2.0 | 3.0 | 0.00 | 0.00 | 0.00 | 91 | 1018.0 |
| 20260906064003 | 64 | 5 | 1.0 | 3.0 | 0.00 | 0.00 | 0.00 | 91 | 1018.1 |
| 20260906063505 | 64 | 5 | 2.0 | 3.0 | 0.00 | 0.00 | 0.00 | 91 | 1018.1 |
| 20260906063012 | 64 | 12 | 1.0 | 4.0 | 0.00 | 0.00 | 0.00 | 92 | 1018.1 |
| 20260906062503 | 64 | 12 | 1.0 | 4.0 | 0.00 | 0.00 | 0.00 | 92 | 1018.1 |
| 20260906062006 | 64 | 12 | 2.0 | 4.0 | 0.00 | 0.00 | 0.00 | 92 | 1018.1 |
| 20260906061508 | 64 | 5 | 1.0 | 4.0 | 0.00 | 0.00 | 0.00 | 92 | 1018.0 |
| 20260906061006 | 64 | 342 | 1.0 | 4.0 | 0.00 | 0.00 | 0.00 | 92 | 1018.0 |
| 20260906060506 | 64 | 352 | 1.0 | 4.0 | 0.00 | 0.00 | 0.00 | 92 | 1018.0 |
| 20260906060004 | 64 | 346 | 2.0 | 4.0 | 0.00 | 0.00 | 0.00 | 91 | 1017.9 |
| 20260906055503 | 64 | 351 | 2.0 | 4.0 | 0.00 | 0.00 | 0.00 | 91 | 1018.0 |
| 20260906055003 | 64 | 14 | 2.0 | 4.0 | 0.00 | 0.00 | 0.00 | 91 | 1017.9 |
| 20260906054504 | 64 | 14 | 2.0 | 4.0 | 0.00 | 0.00 | 0.00 | 91 | 1017.8 |
| 20260906054003 | 64 | 23 | 1.0 | 4.0 | 0.00 | 0.00 | 0.00 | 91 | 1017.8 |
| 20260906053503 | 64 | 36 | 1.0 | 4.0 | 0.00 | 0.00 | 0.00 | 91 | 1017.9 |
| 20260906053016 | 64 | 38 | 2.0 | 4.0 | 0.00 | 0.00 | 0.00 | 91 | 1017.9 |
| 20260906052503 | 65 | 72 | 2.0 | 4.0 | 0.00 | 0.00 | 0.00 | 91 | 1017.8 |
| 20260906052003 | 65 | 93 | 3.0 | 4.0 | 0.00 | 0.00 | 0.00 | 91 | 1017.9 |
| 20260906051512 | 65 | 75 | 2.0 | 3.0 | 0.00 | 0.00 | 0.00 | 91 | 1017.9 |
| 20260906051003 | 65 | 75 | 1.0 | 3.0 | 0.00 | 0.00 | 0.00 | 91 | 1017.8 |
| 20260906050503 | 65 | 75 | 1.0 | 4.0 | 0.00 | 0.00 | 0.00 | 91 | 1017.7 |
| 20260906050013 | 65 | 75 | 1.0 | 4.0 | 0.00 | 0.00 | 0.00 | 90 | 1017.7 |
| 20260906045502 | 65 | 61 | 2.0 | 5.0 | 0.00 | 0.00 | 0.00 | 90 | 1017.7 |
| 20260906045005 | 65 | 74 | 2.0 | 6.0 | 0.00 | 0.00 | 0.00 | 90 | 1017.7 |
| 20260906044512 | 65 | 82 | 3.0 | 8.0 | 0.00 | 0.00 | 0.00 | 90 | 1017.7 |
| 20260906044004 | 65 | 74 | 3.0 | 8.0 | 0.00 | 0.00 | 0.00 | 90 | 1017.7 |
| 20260906043503 | 65 | 69 | 3.0 | 7.0 | 0.00 | 0.00 | 0.00 | 90 | 1017.7 |
| 20260906043012 | 65 | 75 | 3.0 | 7.0 | 0.00 | 0.00 | 0.00 | 90 | 1017.6 |
| 20260906042503 | 65 | 76 | 3.0 | 7.0 | 0.00 | 0.00 | 0.00 | 90 | 1017.5 |
| 20260906042003 | 65 | 49 | 4.0 | 7.0 | 0.00 | 0.00 | 0.00 | 89 | 1017.5 |
| 20260906041512 | 65 | 69 | 3.0 | 7.0 | 0.00 | 0.00 | 0.00 | 89 | 1017.5 |
| 20260906041005 | 65 | 101 | 3.0 | 9.0 | 0.00 | 0.00 | 0.00 | 89 | 1017.5 |
| 20260906040503 | 65 | 83 | 3.0 | 9.0 | 0.00 | 0.00 | 0.00 | 89 | 1017.4 |
| 20260906040006 | 65 | 88 | 3.0 | 7.0 | 0.00 | 0.00 | 0.00 | 88 | 1017.5 |
| 20260906035503 | 66 | 65 | 3.0 | 8.0 | 0.00 | 0.00 | 0.00 | 88 | 1017.5 |
| 20260906035003 | 66 | 61 | 3.0 | 8.0 | 0.00 | 0.00 | 0.00 | 88 | 1017.6 |
| 20260906034521 | 66 | 81 | 3.0 | 8.0 | 0.00 | 0.00 | 0.00 | 87 | 1017.6 |
| 20260906034007 | 66 | 65 | 3.0 | 8.0 | 0.00 | 0.00 | 0.00 | 87 | 1017.5 |
| 20260906033504 | 66 | 76 | 3.0 | 7.0 | 0.00 | 0.00 | 0.00 | 86 | 1017.6 |
| 20260906033017 | 66 | 86 | 3.0 | 7.0 | 0.00 | 0.00 | 0.00 | 86 | 1017.6 |
| 20260906032505 | 66 | 88 | 3.0 | 10.0 | 0.00 | 0.00 | 0.00 | 85 | 1017.5 |
| 20260906032004 | 66 | 100 | 4.0 | 10.0 | 0.00 | 0.00 | 0.00 | 85 | 1017.5 |
| 20260906031512 | 66 | 88 | 5.0 | 10.0 | 0.00 | 0.00 | 0.00 | 84 | 1017.5 |
| 20260906031004 | 66 | 111 | 4.0 | 11.0 | 0.00 | 0.00 | 0.00 | 84 | 1017.4 |
| 20260906030504 | 66 | 100 | 5.0 | 13.0 | 0.00 | 0.00 | 0.00 | 84 | 1017.3 |
| 20260906030011 | 66 | 84 | 4.0 | 13.0 | 0.00 | 0.00 | 0.00 | 84 | 1017.4 |
| 20260906025505 | 67 | 107 | 5.0 | 12.0 | 0.00 | 0.00 | 0.00 | 85 | 1017.5 |
| 20260906025003 | 67 | 84 | 5.0 | 12.0 | 0.00 | 0.00 | 0.00 | 86 | 1017.6 |
| 20260906024517 | 67 | 112 | 4.0 | 9.0 | 0.00 | 0.00 | 0.00 | 86 | 1017.6 |
| 20260906024007 | 67 | 88 | 6.0 | 10.0 | 0.00 | 0.00 | 0.00 | 87 | 1017.5 |
| 20260906023502 | 67 | 76 | 5.0 | 12.0 | 0.00 | 0.00 | 0.00 | 87 | 1017.3 |
| 20260906023012 | 67 | 84 | 5.0 | 12.0 | 0.00 | 0.00 | 0.00 | 87 | 1017.3 |
| 20260906022503 | 67 | 92 | 7.0 | 11.0 | 0.00 | 0.00 | 0.00 | 88 | 1017.1 |
| 20260906022006 | 68 | 107 | 5.0 | 11.0 | 0.00 | 0.00 | 0.00 | 88 | 1017.1 |
| 20260906021516 | 68 | 40 | 5.0 | 11.0 | 0.00 | 0.00 | 0.00 | 88 | 1017.0 |
| 20260906021004 | 68 | 82 | 4.0 | 11.0 | 0.00 | 0.00 | 0.00 | 88 | 1017.0 |
| 20260906020504 | 68 | 53 | 6.0 | 11.0 | 0.00 | 0.00 | 0.00 | 88 | 1017.0 |
| 20260906020011 | 69 | 84 | 3.0 | 8.0 | 0.00 | 0.00 | 0.00 | 88 | 1017.1 |
| 20260906015505 | 69 | 117 | 3.0 | 7.0 | 0.00 | 0.00 | 0.00 | 87 | 1017.1 |
| 20260906015004 | 69 | 111 | 4.0 | 7.0 | 0.00 | 0.00 | 0.00 | 87 | 1017.1 |
| 20260906014520 | 69 | 92 | 3.0 | 9.0 | 0.00 | 0.00 | 0.00 | 86 | 1017.1 |
| 20260906014009 | 69 | 130 | 4.0 | 9.0 | 0.00 | 0.00 | 0.00 | 86 | 1017.0 |
| 20260906013508 | 69 | 82 | 4.0 | 9.0 | 0.00 | 0.00 | 0.00 | 87 | 1017.1 |
| 20260906013024 | 69 | 94 | 2.0 | 10.0 | 0.00 | 0.00 | 0.00 | 87 | 1017.1 |
| 20260906012503 | 69 | 89 | 3.0 | 11.0 | 0.00 | 0.00 | 0.00 | 88 | 1017.2 |
| 20260906012005 | 69 | 62 | 4.0 | 12.0 | 0.00 | 0.00 | 0.00 | 88 | 1017.2 |
| 20260906011506 | 69 | 49 | 3.0 | 12.0 | 0.00 | 0.00 | 0.00 | 89 | 1017.1 |
| 20260906011006 | 69 | 72 | 6.0 | 10.0 | 0.00 | 0.00 | 0.00 | 90 | 1017.1 |
| 20260906010504 | 69 | 59 | 4.0 | 9.0 | 0.00 | 0.00 | 0.00 | 90 | 1017.1 |
| 20260906010010 | 69 | 53 | 2.0 | 10.0 | 0.00 | 0.00 | 0.00 | 91 | 1017.1 |
| 20260906005504 | 69 | 81 | 3.0 | 10.0 | 0.00 | 0.00 | 0.00 | 91 | 1017.2 |
| 20260906005005 | 69 | 88 | 3.0 | 9.0 | 0.00 | 0.00 | 0.00 | 91 | 1017.1 |
| 20260906004511 | 69 | 102 | 4.0 | 9.0 | 0.00 | 0.00 | 0.00 | 90 | 1017.0 |
| 20260906004004 | 69 | 111 | 3.0 | 7.0 | 0.00 | 0.00 | 0.00 | 90 | 1016.9 |
| 20260906003506 | 69 | 76 | 2.0 | 7.0 | 0.00 | 0.00 | 0.00 | 90 | 1017.0 |
| 20260906003008 | 69 | 54 | 3.0 | 7.0 | 0.00 | 0.00 | 0.00 | 90 | 1017.1 |
| 20260906002504 | 69 | 86 | 3.0 | 8.0 | 0.00 | 0.00 | 0.00 | 90 | 1017.1 |
| 20260906002004 | 69 | 97 | 3.0 | 8.0 | 0.00 | 0.00 | 0.00 | 90 | 1017.1 |
| 20260906001512 | 69 | 105 | 3.0 | 8.0 | 0.00 | 0.00 | 0.00 | 90 | 1017.1 |
| 20260906001003 | 69 | 98 | 2.0 | 8.0 | 0.00 | 0.00 | 0.00 | 89 | 1017.0 |
| 20260906000503 | 69 | 94 | 5.0 | 10.0 | 0.00 | 0.00 | 0.00 | 89 | 1016.9 |
| 20260906000010 | 69 | 97 | 4.0 | 10.0 | 0.00 | 0.00 | 0.00 | 89 | 1017.0 |
| 20260905235503 | 69 | 66 | 5.0 | 12.0 | 0.00 | 0.00 | 0.00 | 89 | 1017.0 |
| 20260905235008 | 69 | 97 | 4.0 | 12.0 | 0.00 | 0.00 | 0.00 | 89 | 1017.0 |
| 20260905234513 | 70 | 86 | 4.0 | 11.0 | 0.00 | 0.00 | 0.00 | 88 | 1017.0 |
| 20260905234006 | 70 | 94 | 7.0 | 11.0 | 0.00 | 0.00 | 0.00 | 88 | 1017.1 |
| 20260905233506 | 70 | 115 | 5.0 | 10.0 | 0.00 | 0.00 | 0.00 | 88 | 1017.0 |
| 20260905233009 | 70 | 108 | 4.0 | 10.0 | 0.00 | 0.00 | 0.00 | 88 | 1017.0 |
| 20260905232512 | 70 | 102 | 4.0 | 10.0 | 0.00 | 0.00 | 0.00 | 88 | 1017.0 |
| 20260905232007 | 70 | 53 | 6.0 | 12.0 | 0.00 | 0.00 | 0.00 | 88 | 1017.0 |
| 20260905231512 | 70 | 86 | 6.0 | 12.0 | 0.00 | 0.00 | 0.00 | 88 | 1017.0 |
| 20260905231006 | 70 | 80 | 4.0 | 12.0 | 0.00 | 0.00 | 0.00 | 88 | 1017.0 |
| 20260905230508 | 70 | 91 | 3.0 | 14.0 | 0.00 | 0.00 | 0.00 | 88 | 1017.0 |
| 20260905230012 | 71 | 103 | 5.0 | 14.0 | 0.00 | 0.00 | 0.00 | 88 | 1016.9 |
| 20260905225504 | 71 | 98 | 8.0 | 14.0 | 0.00 | 0.00 | 0.00 | 87 | 1016.9 |
| 20260905225005 | 71 | 115 | 3.0 | 13.0 | 0.00 | 0.00 | 0.00 | 87 | 1016.8 |
| 20260905224518 | 71 | 78 | 6.0 | 13.0 | 0.00 | 0.00 | 0.00 | 87 | 1016.8 |
| 20260905224006 | 71 | 94 | 2.0 | 10.0 | 0.00 | 0.00 | 0.00 | 87 | 1017.0 |
| 20260905223505 | 71 | 92 | 6.0 | 13.0 | 0.00 | 0.00 | 0.00 | 87 | 1016.8 |
| 20260905223011 | 71 | 90 | 5.0 | 13.0 | 0.00 | 0.00 | 0.00 | 87 | 1016.9 |
| 20260905222506 | 71 | 74 | 5.0 | 14.0 | 0.00 | 0.00 | 0.00 | 87 | 1016.8 |
| 20260905222005 | 72 | 59 | 4.0 | 14.0 | 0.00 | 0.00 | 0.00 | 86 | 1016.7 |
| 20260905221529 | 72 | 55 | 4.0 | 11.0 | 0.00 | 0.00 | 0.00 | 86 | 1016.6 |
| 20260905221006 | 72 | 76 | 5.0 | 13.0 | 0.00 | 0.00 | 0.00 | 86 | 1016.6 |
| 20260905220507 | 72 | 92 | 7.0 | 14.0 | 0.00 | 0.00 | 0.00 | 86 | 1016.5 |
| 20260905220013 | 73 | 69 | 6.0 | 14.0 | 0.00 | 0.00 | 0.00 | 85 | 1016.4 |
| 20260905215506 | 73 | 9 | 6.0 | 12.0 | 0.00 | 0.00 | 0.00 | 85 | 1016.3 |
| 20260905215006 | 73 | 82 | 2.0 | 11.0 | 0.00 | 0.00 | 0.00 | 85 | 1016.3 |
| 20260905214519 | 73 | 89 | 7.0 | 12.0 | 0.00 | 0.00 | 0.00 | 84 | 1016.2 |
| 20260905214011 | 73 | 74 | 4.0 | 12.0 | 0.00 | 0.00 | 0.00 | 84 | 1016.3 |
| 20260905213505 | 73 | 65 | 7.0 | 12.0 | 0.00 | 0.00 | 0.00 | 84 | 1016.3 |
| 20260905213015 | 74 | 54 | 7.0 | 12.0 | 0.00 | 0.00 | 0.00 | 83 | 1016.2 |
| 20260905212506 | 74 | 13 | 5.0 | 14.0 | 0.00 | 0.00 | 0.00 | 83 | 1016.2 |
| 20260905212010 | 74 | 65 | 5.0 | 14.0 | 0.00 | 0.00 | 0.00 | 83 | 1016.1 |
| 20260905211526 | 74 | 71 | 5.0 | 14.0 | 0.00 | 0.00 | 0.00 | 82 | 1016.1 |
| 20260905211010 | 75 | 94 | 8.0 | 16.0 | 0.00 | 0.00 | 0.00 | 80 | 1016.1 |
| 20260905210514 | 75 | 62 | 6.0 | 16.0 | 0.00 | 0.00 | 0.00 | 81 | 1016.2 |
| 20260905210029 | 75 | 126 | 7.0 | 15.0 | 0.00 | 0.00 | 0.00 | 81 | 1015.9 |
| 20260905205506 | 75 | 76 | 10.0 | 15.0 | 0.00 | 0.00 | 0.00 | 80 | 1015.9 |
| 20260905205012 | 75 | 100 | 6.0 | 16.0 | 0.00 | 0.00 | 0.00 | 81 | 1016.0 |
| 20260905204520 | 75 | 80 | 8.0 | 16.0 | 0.00 | 0.00 | 0.00 | 81 | 1016.1 |
| 20260905204013 | 75 | 26 | 6.0 | 16.0 | 0.00 | 0.00 | 0.00 | 82 | 1016.2 |
| 20260905203507 | 74 | 91 | 7.0 | 13.0 | 0.00 | 0.00 | 0.00 | 83 | 1016.2 |
| 20260905203015 | 74 | 70 | 6.0 | 12.0 | 0.00 | 0.00 | 0.00 | 83 | 1016.2 |
| 20260905202514 | 74 | 92 | 7.0 | 14.0 | 0.00 | 0.00 | 0.00 | 83 | 1016.2 |
| 20260905202008 | 74 | 85 | 2.0 | 15.0 | 0.00 | 0.00 | 0.00 | 84 | 1016.2 |
| 20260905201525 | 74 | 84 | 8.0 | 15.0 | 0.00 | 0.00 | 0.00 | 82 | 1016.1 |
| 20260905201009 | 75 | 90 | 9.0 | 15.0 | 0.00 | 0.00 | 0.00 | 81 | 1016.1 |
| 20260905200507 | 75 | 73 | 5.0 | 13.0 | 0.00 | 0.00 | 0.00 | 82 | 1016.1 |
| 20260905200020 | 74 | 103 | 5.0 | 14.0 | 0.00 | 0.00 | 0.00 | 83 | 1016.2 |
| 20260905195515 | 75 | 96 | 8.0 | 14.0 | 0.00 | 0.00 | 0.00 | 82 | 1016.2 |
| 20260905195013 | 74 | 53 | 6.0 | 14.0 | 0.00 | 0.00 | 0.00 | 83 | 1016.2 |
| 20260905194529 | 74 | 60 | 7.0 | 14.0 | 0.00 | 0.00 | 0.00 | 83 | 1016.2 |
| 20260905194012 | 75 | 112 | 5.0 | 14.0 | 0.00 | 0.00 | 0.00 | 83 | 1016.3 |
| 20260905193514 | 75 | 68 | 6.0 | 16.0 | 0.00 | 0.00 | 0.00 | 84 | 1016.2 |
| 20260905193027 | 74 | 76 | 9.0 | 16.0 | 0.00 | 0.00 | 0.00 | 85 | 1016.2 |
| 20260905192513 | 75 | 67 | 7.0 | 15.0 | 0.00 | 0.00 | 0.00 | 84 | 1016.1 |
| 20260905192001 | 75 | 86 | 8.0 | 15.0 | 0.00 | 0.00 | 0.00 | 83 | 1016.0 |
| 20260905191502 | 76 | 65 | 6.0 | 15.0 | 0.00 | 0.00 | 0.00 | 84 | 1016.0 |
| 20260905191001 | 76 | 64 | 5.0 | 12.0 | 0.00 | 0.00 | 0.00 | 80 | 1016.0 |
| 20260905190502 | 77 | 360 | 6.0 | 12.0 | 0.00 | 0.00 | 0.00 | 80 | 1016.1 |
| 20260905190004 | 77 | 42 | 4.0 | 11.0 | 0.00 | 0.00 | 0.00 | 80 | 1016.0 |
| 20260905185502 | 77 | 19 | 4.0 | 11.0 | 0.00 | 0.00 | 0.00 | 80 | 1016.1 |
| 20260905185004 | 77 | 326 | 3.0 | 10.0 | 0.00 | 0.00 | 0.00 | 80 | 1016.1 |
| 20260905184504 | 76 | 34 | 6.0 | 10.0 | 0.00 | 0.00 | 0.00 | 79 | 1016.1 |
| 20260905184004 | 76 | 61 | 4.0 | 9.0 | 0.00 | 0.00 | 0.00 | 80 | 1016.1 |
| 20260905183502 | 76 | 44 | 4.0 | 10.0 | 0.00 | 0.00 | 0.00 | 80 | 1016.0 |
| 20260905183004 | 76 | 337 | 4.0 | 10.0 | 0.00 | 0.00 | 0.00 | 79 | 1016.2 |
| 20260905182501 | 76 | 360 | 3.0 | 10.0 | 0.00 | 0.00 | 0.00 | 80 | 1016.2 |
| 20260905182002 | 76 | 115 | 3.0 | 11.0 | 0.00 | 0.00 | 0.00 | 79 | 1016.2 |
| 20260905181502 | 76 | 20 | 6.0 | 14.0 | 0.00 | 0.00 | 0.00 | 79 | 1016.1 |
| 20260905181004 | 76 | 22 | 5.0 | 14.0 | 0.00 | 0.00 | 0.00 | 79 | 1016.1 |
| 20260905180503 | 77 | 17 | 5.0 | 10.0 | 0.00 | 0.00 | 0.00 | 78 | 1016.2 |
| 20260905180004 | 77 | 96 | 3.0 | 13.0 | 0.00 | 0.00 | 0.00 | 81 | 1016.2 |
| 20260905175502 | 76 | 352 | 3.0 | 13.0 | 0.00 | 0.00 | 0.00 | 80 | 1016.3 |
| 20260905175002 | 76 | 12 | 4.0 | 13.0 | 0.00 | 0.00 | 0.00 | 81 | 1016.2 |
| 20260905174509 | 75 | 32 | 7.0 | 13.0 | 0.00 | 0.00 | 0.00 | 80 | 1016.2 |
| 20260905174003 | 75 | 334 | 7.0 | 11.0 | 0.00 | 0.00 | 0.00 | 81 | 1016.1 |
| 20260905173503 | 75 | 32 | 4.0 | 11.0 | 0.00 | 0.00 | 0.00 | 81 | 1016.2 |
| 20260905173011 | 75 | 10 | 5.0 | 11.0 | 0.00 | 0.00 | 0.00 | 82 | 1016.3 |
| 20260905172503 | 75 | 24 | 4.0 | 11.0 | 0.00 | 0.00 | 0.00 | 83 | 1016.3 |
| 20260905172003 | 75 | 40 | 7.0 | 11.0 | 0.00 | 0.00 | 0.00 | 82 | 1016.3 |
| 20260905171504 | 75 | 78 | 5.0 | 10.0 | 0.00 | 0.00 | 0.00 | 82 | 1016.2 |
| 20260905171002 | 75 | 53 | 4.0 | 10.0 | 0.00 | 0.00 | 0.00 | 83 | 1016.2 |
| 20260905170502 | 75 | 34 | 4.0 | 9.0 | 0.00 | 0.00 | 0.00 | 84 | 1016.2 |
| 20260905170005 | 75 | 66 | 2.0 | 8.0 | 0.00 | 0.00 | 0.00 | 84 | 1016.3 |
| 20260905165503 | 74 | 62 | 4.0 | 10.0 | 0.00 | 0.00 | 0.00 | 84 | 1016.3 |
| 20260905165003 | 75 | 49 | 3.0 | 10.0 | 0.00 | 0.00 | 0.00 | 84 | 1016.3 |
| 20260905164504 | 75 | 30 | 2.0 | 7.0 | 0.00 | 0.00 | 0.00 | 83 | 1016.4 |
| 20260905164002 | 75 | 74 | 1.0 | 7.0 | 0.00 | 0.00 | 0.00 | 83 | 1016.3 |
| 20260905163503 | 75 | 34 | 3.0 | 7.0 | 0.00 | 0.00 | 0.00 | 83 | 1016.4 |
| 20260905163004 | 74 | 347 | 2.0 | 7.0 | 0.00 | 0.00 | 0.00 | 85 | 1016.3 |
| 20260905162503 | 74 | 57 | 2.0 | 9.0 | 0.00 | 0.00 | 0.00 | 85 | 1016.2 |
| 20260905162002 | 74 | 55 | 4.0 | 9.0 | 0.00 | 0.00 | 0.00 | 84 | 1016.3 |
| 20260905161503 | 74 | 105 | 2.0 | 9.0 | 0.00 | 0.00 | 0.00 | 85 | 1016.3 |
| 20260905161004 | 74 | 82 | 4.0 | 10.0 | 0.00 | 0.00 | 0.00 | 85 | 1016.3 |
| 20260905160503 | 74 | 47 | 4.0 | 10.0 | 0.00 | 0.00 | 0.00 | 86 | 1016.4 |
| 20260905160004 | 74 | 36 | 5.0 | 9.0 | 0.00 | 0.00 | 0.00 | 86 | 1016.4 |
| 20260905155501 | 74 | 5 | 4.0 | 9.0 | 0.00 | 0.00 | 0.00 | 86 | 1016.3 |
| 20260905155002 | 74 | 29 | 3.0 | 9.0 | 0.00 | 0.00 | 0.00 | 86 | 1016.3 |
| 20260905154504 | 74 | 347 | 1.0 | 9.0 | 0.00 | 0.00 | 0.00 | 87 | 1016.3 |
| 20260905154003 | 74 | 61 | 1.0 | 8.0 | 0.00 | 0.00 | 0.00 | 87 | 1016.2 |
| 20260905153506 | 73 | 63 | 1.0 | 9.0 | 0.00 | 0.00 | 0.00 | 88 | 1016.3 |
| 20260905153004 | 73 | 40 | 5.0 | 10.0 | 0.00 | 0.00 | 0.00 | 88 | 1016.3 |
| 20260905152504 | 73 | 55 | 5.0 | 10.0 | 0.00 | 0.00 | 0.00 | 88 | 1016.3 |
| 20260905152005 | 73 | 36 | 2.0 | 9.0 | 0.00 | 0.00 | 0.00 | 89 | 1016.2 |
| 20260905151504 | 72 | 23 | 4.0 | 10.0 | 0.00 | 0.00 | 0.00 | 89 | 1016.2 |
| 20260905151005 | 72 | 12 | 4.0 | 10.0 | 0.00 | 0.00 | 0.00 | 89 | 1016.0 |
| 20260905150506 | 73 | 39 | 4.0 | 10.0 | 0.00 | 0.00 | 0.00 | 88 | 1016.0 |
| 20260905150007 | 73 | 80 | 2.0 | 10.0 | 0.00 | 0.00 | 0.00 | 90 | 1015.9 |
| 20260905145503 | 72 | 90 | 4.0 | 10.0 | 0.00 | 0.00 | 0.00 | 90 | 1015.9 |
| 20260905145004 | 72 | 41 | 4.0 | 11.0 | 0.00 | 0.00 | 0.00 | 92 | 1015.8 |
| 20260905144506 | 71 | 45 | 4.0 | 11.0 | 0.00 | 0.00 | 0.00 | 93 | 1015.8 |
| 20260905144004 | 70 | 43 | 4.0 | 10.0 | 0.00 | 0.00 | 0.00 | 93 | 1015.9 |
| 20260905143504 | 70 | 105 | 4.0 | 12.0 | 0.00 | 0.00 | 0.00 | 94 | 1015.7 |
| 20260905143006 | 70 | 57 | 4.0 | 12.0 | 0.00 | 0.00 | 0.00 | 94 | 1015.6 |
| 20260905142503 | 70 | 102 | 4.0 | 12.0 | 0.00 | 0.00 | 0.00 | 94 | 1015.5 |
| 20260905142003 | 70 | 78 | 4.0 | 12.0 | 0.00 | 0.00 | 0.00 | 94 | 1015.5 |
| 20260905141506 | 70 | 117 | 4.0 | 14.0 | 0.00 | 0.00 | 0.00 | 94 | 1015.4 |
| 20260905141003 | 70 | 44 | 8.0 | 14.0 | 0.00 | 0.00 | 0.00 | 94 | 1015.3 |
| 20260905140506 | 70 | 42 | 5.0 | 14.0 | 0.00 | 0.00 | 0.00 | 94 | 1015.4 |
| 20260905140008 | 70 | 46 | 7.0 | 14.0 | 0.00 | 0.00 | 0.00 | 95 | 1015.4 |
| 20260905135503 | 70 | 96 | 4.0 | 12.0 | 0.00 | 0.00 | 0.00 | 95 | 1015.4 |
| 20260905135003 | 70 | 91 | 5.0 | 10.0 | 0.00 | 0.00 | 0.00 | 95 | 1015.3 |
| 20260905134508 | 70 | 82 | 2.0 | 14.0 | 0.00 | 0.00 | 0.00 | 95 | 1015.3 |
| 20260905134003 | 70 | 82 | 4.0 | 14.0 | 0.00 | 0.00 | 0.00 | 95 | 1015.3 |
| 20260905133503 | 70 | 86 | 5.0 | 12.0 | 0.00 | 0.00 | 0.00 | 95 | 1015.3 |
| 20260905133013 | 70 | 67 | 5.0 | 11.0 | 0.00 | 0.00 | 0.00 | 95 | 1015.3 |
| 20260905132503 | 70 | 42 | 5.0 | 11.0 | 0.00 | 0.00 | 0.00 | 95 | 1015.4 |
| 20260905132004 | 70 | 89 | 5.0 | 11.0 | 0.00 | 0.00 | 0.00 | 95 | 1015.4 |
| 20260905131525 | 70 | 47 | 7.0 | 11.0 | 0.00 | 0.00 | 0.00 | 95 | 1015.5 |
| 20260905131006 | 70 | 55 | 3.0 | 7.0 | 0.00 | 0.00 | 0.00 | 95 | 1015.7 |
| 20260905130505 | 70 | 67 | 0.0 | 9.0 | 0.00 | 0.00 | 0.00 | 95 | 1015.5 |
| 20260905130015 | 70 | 30 | 4.0 | 9.0 | 0.00 | 0.00 | 0.00 | 95 | 1015.3 |
| 20260905125504 | 69 | 66 | 3.0 | 6.0 | 0.00 | 0.00 | 0.00 | 95 | 1015.0 |
| 20260905125005 | 69 | 22 | 3.0 | 8.0 | 0.00 | 0.00 | 0.00 | 95 | 1015.0 |
| 20260905124533 | 69 | 63 | 2.0 | 9.0 | 0.00 | 0.00 | 0.00 | 95 | 1014.8 |